DW9497 Weather Reports


Display with metric or nautical units.
time (UTC)temp
F
wind
direction
speed
MPH
gust
MPH
rain 1hr
in
rain 24hr
in
rain mn
in
humidity
%
barometer
mb
20260502220020 52 79 0.0 0.0 0.00 0.00 0.00 91 1010.8
20260502214517 53 81 0.0 0.0 0.00 0.00 0.00 91 1010.7
20260502213032 53 110 0.0 0.0 0.00 0.00 0.00 91 1010.8
20260502211517 53 108 0.0 0.0 0.00 0.00 0.00 90 1011.0
20260502210011 53 108 0.0 0.0 0.00 0.00 0.00 89 1011.2
20260502204508 54 109 0.0 1.0 0.00 0.00 0.00 89 1011.3
20260502203006 53 108 0.0 0.0 0.00 0.00 0.00 86 1011.5
20260502201517 54 108 0.0 0.0 0.00 0.00 0.00 85 1011.6
20260502200005 55 108 0.0 0.0 0.00 0.00 0.00 83 1011.7
20260502194504 56 108 0.0 1.0 0.00 0.00 0.00 80 1011.8
20260502193004 57 109 0.0 0.0 0.00 0.00 0.00 76 1011.8
20260502191503 57 108 0.0 1.0 0.00 0.00 0.00 74 1011.7
20260502190003 58 107 0.0 1.0 0.00 0.00 0.00 72 1011.8
20260502184504 58 107 0.0 1.0 0.00 0.00 0.00 69 1011.6
20260502183001 59 107 0.0 0.0 0.00 0.00 0.00 67 1011.5
20260502181602 59 108 0.0 0.0 0.00 0.00 0.00 66 1011.5
20260502180105 60 108 0.0 1.0 0.00 0.00 0.00 65 1011.6
20260502163058 62 105 0.0 3.0 0.00 0.00 0.00 59 1012.1
20260502161553 62 118 0.0 1.0 0.00 0.00 0.00 61 1012.1
20260502151607 63 103 0.0 3.0 0.00 0.00 0.00 58 1012.8
20260502123025 64 105 0.0 4.0 0.00 0.00 0.00 60 1014.5
20260502121529 64 313 1.0 5.0 0.00 0.00 0.00 57 1014.8
20260502114519 63 139 0.0 4.0 0.00 0.00 0.00 60 1015.2
20260502113018 63 100 1.0 5.0 0.00 0.00 0.00 64 1015.4
20260502111516 63 119 1.0 3.0 0.00 0.00 0.00 61 1015.6
20260502110014 63 118 0.0 2.0 0.00 0.00 0.00 67 1015.5
20260502104521 60 124 0.0 3.0 0.00 0.00 0.00 66 1015.7
20260502103013 60 110 0.0 3.0 0.00 0.00 0.00 69 1015.7
20260502101506 58 123 0.0 2.0 0.00 0.00 0.00 69 1015.6
20260502071535 48 169 0.0 2.0 0.00 0.00 0.00 95 1016.9
20260502070053 46 169 0.0 0.0 0.00 0.00 0.00 95 1016.8
20260502064534 45 170 0.0 0.0 0.00 0.00 0.00 95 1016.6
20260502063035 45 169 0.0 0.0 0.00 0.00 0.00 94 1016.6
20260502061533 44 168 0.0 0.0 0.00 0.00 0.00 95 1016.6
20260502060039 43 226 0.0 0.0 0.00 0.00 0.00 95 1016.6
20260502054541 42 227 0.0 0.0 0.00 0.00 0.00 94 1016.5
20260502053031 41 229 0.0 0.0 0.00 0.00 0.00 94 1016.5
20260502051529 41 226 0.0 0.0 0.00 0.00 0.00 93 1016.5
20260502050028 42 226 0.0 0.0 0.00 0.00 0.00 93 1016.5
20260502044526 42 226 0.0 0.0 0.00 0.00 0.00 93 1016.5
20260502043023 43 227 0.0 0.0 0.00 0.00 0.00 93 1016.4
20260502041536 43 228 0.0 0.0 0.00 0.00 0.00 93 1016.4
20260502040042 43 226 0.0 0.0 0.00 0.00 0.00 93 1016.6
20260502034518 43 226 0.0 0.0 0.00 0.00 0.00 93 1016.7
20260502033026 44 229 0.0 1.0 0.00 0.00 0.00 93 1016.7
20260502031513 44 276 0.0 1.0 0.00 0.00 0.00 93 1016.8
20260502030013 44 279 0.0 1.0 0.00 0.00 0.00 93 1016.8
20260502024512 45 279 0.0 0.0 0.00 0.00 0.00 93 1016.8
20260502023026 45 280 0.0 0.0 0.00 0.00 0.00 92 1016.8
20260502021508 45 279 0.0 0.0 0.00 0.00 0.00 93 1016.9
20260502020006 45 278 0.0 0.0 0.00 0.00 0.00 92 1017.0
20260502014503 45 280 0.0 0.0 0.00 0.00 0.00 92 1017.3
20260502013103 46 280 0.0 0.0 0.00 0.00 0.00 92 1017.5
20260502013001 46 278 0.0 0.0 0.00 0.00 0.00 92 1017.5
20260502011607 46 281 0.0 0.0 0.00 0.00 0.00 92 1017.6
20260502010056 47 277 0.0 1.0 0.00 0.00 0.00 92 1017.7
20260502004555 47 281 0.0 1.0 0.00 0.00 0.00 93 1017.7
20260502003051 47 228 0.0 1.0 0.00 0.00 0.00 93 1017.9
20260502001558 47 269 0.0 1.0 0.00 0.00 0.00 93 1017.9
20260502000059 48 270 0.0 1.0 0.00 0.00 0.00 92 1018.1
20260501234546 48 266 0.0 1.0 0.00 0.00 0.00 93 1017.9
20260501233101 48 269 0.0 1.0 0.00 0.00 0.00 93 1018.1
20260501231552 49 259 0.0 1.0 0.00 0.00 0.00 93 1018.3
20260501230111 49 266 0.0 1.0 0.00 0.00 0.00 93 1018.2
20260501224553 49 224 0.0 1.0 0.00 0.00 0.00 93 1018.2
20260501223040 50 234 0.0 1.0 0.00 0.00 0.00 93 1018.2
20260501221537 50 273 0.0 1.0 0.00 0.00 0.00 93 1018.2